FW8879 Weather Reports


time (UTC)temp
F
wind
direction
speed
knots
gust
knots
rain 1hr
in
rain 24hr
in
rain mn
in
humidity
%
barometer
mb
20260505194515 84 138 9.6 9.6 0.00 0.00 0.00 73 1003.6
20260505194010 83 173 4.3 4.3 0.00 0.00 0.00 75 1004.0
20260505193508 84 150 9.6 10.4 0.00 0.00 0.00 73 1004.0
20260505193005 83 182 4.3 4.3 0.00 0.00 0.00 75 1004.0
20260505192503 83 178 7.8 8.7 0.00 0.00 0.00 74 1004.0
20260505192001 83 186 6.1 7.0 0.00 0.00 0.00 75 1004.0
20260505191459 82 150 7.0 7.8 0.00 0.00 0.00 77 1004.3
20260505190956 82 180 3.5 3.5 0.00 0.00 0.00 77 1004.0
20260505190450 82 198 7.8 7.8 0.00 0.00 0.00 77 1004.3
20260505185946 82 138 2.6 2.6 0.00 0.00 0.00 78 1004.3
20260505185444 82 168 4.3 5.2 0.00 0.00 0.00 77 1004.0
20260505184940 82 222 6.1 7.0 0.00 0.00 0.00 76 1004.3
20260505184437 81 156 12.2 13.9 0.00 0.00 0.00 76 1004.3
20260505183933 81 177 7.0 7.8 0.00 0.00 0.00 78 1004.3
20260505183430 81 165 3.5 3.5 0.00 0.00 0.00 78 1004.7
20260505182927 81 168 6.1 7.0 0.00 0.00 0.00 78 1004.7
20260505182424 80 146 6.1 6.1 0.00 0.00 0.00 80 1004.3
20260505181920 80 164 10.4 11.3 0.00 0.00 0.00 80 1004.7
20260505181418 80 150 4.3 4.3 0.00 0.00 0.00 81 1004.7
20260505180914 80 156 7.0 7.8 0.00 0.00 0.00 80 1004.3
20260505180411 81 152 9.6 10.4 0.00 0.00 0.00 80 1004.7
20260505175908 80 204 9.6 10.4 0.00 0.00 0.00 80 1004.7
20260505175404 79 156 9.6 10.4 0.00 0.00 0.00 81 1004.7
20260505174900 79 184 4.3 4.3 0.00 0.00 0.00 81 1005.0
20260505174358 80 181 7.0 7.8 0.00 0.00 0.00 80 1004.7
20260505173854 80 195 4.3 4.3 0.00 0.00 0.00 80 1005.0
20260505173350 80 168 6.1 6.1 0.00 0.00 0.00 80 1004.7
20260505172848 80 171 9.6 11.3 0.00 0.00 0.00 80 1005.0
20260505172345 79 186 7.0 7.0 0.00 0.00 0.00 81 1005.0
20260505171845 79 180 10.4 12.2 0.00 0.00 0.00 81 1005.0
20260505171342 79 188 7.8 7.8 0.00 0.00 0.00 81 1004.7
20260505170838 79 174 7.8 7.8 0.00 0.00 0.00 81 1005.0
20260505170335 79 168 5.2 5.2 0.00 0.00 0.00 81 1005.0
20260505165831 79 174 3.5 3.5 0.00 0.00 0.00 82 1005.0
20260505165326 79 180 6.1 7.0 0.00 0.00 0.00 82 1005.0
20260505164822 79 186 6.1 6.1 0.00 0.00 0.00 82 1005.0
20260505164319 79 234 4.3 5.2 0.00 0.00 0.00 82 1005.3
20260505163818 78 138 9.6 9.6 0.00 0.00 0.00 82 1005.3
20260505163316 78 163 2.6 2.6 0.00 0.00 0.00 82 1005.0
20260505162814 78 300 5.2 6.1 0.00 0.00 0.00 83 1005.0
20260505162310 78 222 6.1 6.1 0.00 0.00 0.00 85 1005.0
20260505161807 78 174 7.8 8.7 0.00 0.00 0.00 85 1005.0
20260505161304 77 162 5.2 5.2 0.00 0.00 0.00 86 1005.0
20260505160802 77 180 5.2 5.2 0.00 0.00 0.00 87 1005.3
20260505160259 77 150 6.1 6.1 0.00 0.00 0.00 87 1005.0
20260505153238 75 154 5.2 5.2 0.00 0.00 0.00 90 1005.0
20260505152735 75 167 6.1 6.1 0.00 0.00 0.00 90 1005.0
20260505152231 75 156 5.2 5.2 0.00 0.00 0.00 90 1005.0
20260505151726 75 174 6.1 7.0 0.00 0.00 0.00 90 1005.0
20260505151224 75 163 5.2 6.1 0.00 0.00 0.00 90 1005.0
20260505150720 75 153 7.0 7.8 0.00 0.00 0.00 91 1005.0
20260505150217 74 167 8.7 8.7 0.00 0.00 0.00 91 1005.0
20260505140645 74 152 7.0 7.8 0.00 0.00 0.00 91 1005.0
20260505140142 73 149 7.0 7.8 0.00 0.00 0.00 91 1004.7
20260505130106 72 162 3.5 3.5 0.00 0.00 0.00 92 1004.3
20260505124555 72 188 5.2 5.2 0.00 0.00 0.00 92 1004.3
20260505124051 72 198 13.0 14.8 0.00 0.00 0.00 92 1004.3
20260505123548 72 133 7.8 7.8 0.00 0.00 0.00 92 1004.0
20260505123044 72 160 3.5 3.5 0.00 0.00 0.00 92 1004.0
20260505122541 72 141 5.2 5.2 0.00 0.00 0.00 92 1004.0
20260505122038 71 150 9.6 9.6 0.00 0.00 0.00 92 1004.0
20260505121535 71 171 4.3 5.2 0.00 0.00 0.00 92 1004.0
20260505121032 71 164 5.2 5.2 0.00 0.00 0.00 92 1004.3
20260505120528 71 180 6.1 7.0 0.00 0.00 0.00 92 1004.0
20260505120023 71 158 5.2 5.2 0.00 0.00 0.00 92 1004.0
20260505115518 71 204 6.1 7.0 0.00 0.00 0.00 92 1003.6
20260505115016 71 180 6.1 7.0 0.00 0.00 0.00 92 1004.0
20260505114513 71 149 6.1 7.0 0.00 0.00 0.00 92 1004.0
20260505114009 71 144 4.3 5.2 0.00 0.00 0.00 92 1004.0
20260505113506 71 155 3.5 3.5 0.00 0.00 0.00 92 1004.3
20260505113002 71 164 7.8 7.8 0.00 0.00 0.00 92 1004.0
20260505112459 71 145 2.6 2.6 0.00 0.00 0.00 92 1004.0
20260505111956 71 155 6.1 6.1 0.00 0.00 0.00 92 1003.6
20260505111450 71 174 8.7 8.7 0.00 0.00 0.00 92 1004.0
20260505110946 71 180 8.7 8.7 0.00 0.00 0.00 92 1004.0
20260505110443 71 169 7.0 7.8 0.00 0.00 0.00 92 1003.6
20260505101914 71 186 4.3 5.2 0.00 0.00 0.00 91 1004.0
20260505101409 71 168 7.8 7.8 0.00 0.00 0.00 91 1004.0
20260505100905 71 204 9.6 9.6 0.00 0.00 0.00 91 1004.0
20260505100402 71 149 9.6 9.6 0.00 0.00 0.00 92 1003.6
20260505095857 71 160 4.3 4.3 0.00 0.00 0.00 92 1004.3
20260505095355 71 174 6.1 7.0 0.00 0.00 0.00 91 1004.0
20260505094851 71 138 8.7 9.6 0.00 0.00 0.00 91 1004.0
20260505094348 71 153 4.3 5.2 0.00 0.00 0.00 91 1004.0
20260505093843 71 180 7.0 7.8 0.00 0.00 0.00 91 1004.0
20260505093341 71 146 11.3 13.9 0.00 0.00 0.00 91 1004.0
20260505092838 71 158 8.7 9.6 0.00 0.00 0.00 91 1004.0
20260505092337 71 152 7.0 7.8 0.00 0.00 0.00 91 1004.3
20260505091833 71 186 7.8 7.8 0.00 0.00 0.00 91 1004.3
20260505091331 71 171 13.0 14.8 0.00 0.00 0.00 91 1004.3
20260505090829 71 152 7.8 7.8 0.00 0.00 0.00 91 1004.0
20260505090327 71 163 7.0 7.8 0.00 0.00 0.00 91 1004.3
20260505085824 71 126 7.8 7.8 0.00 0.00 0.00 91 1004.3
20260505085322 71 156 13.9 15.6 0.00 0.00 0.00 91 1004.3
20260505084819 71 148 5.2 5.2 0.00 0.00 0.00 91 1004.3
20260505084318 71 150 8.7 8.7 0.00 0.00 0.00 91 1004.3
20260505083814 71 174 7.8 7.8 0.00 0.00 0.00 91 1004.7
20260505083312 71 145 2.6 2.6 0.00 0.00 0.00 91 1004.7
20260505082808 71 157 6.1 7.0 0.00 0.00 0.00 91 1005.0
20260505082305 71 168 9.6 9.6 0.00 0.00 0.00 91 1005.0
20260505081801 71 170 7.0 7.8 0.00 0.00 0.00 91 1005.0
20260505081258 71 146 6.1 7.0 0.00 0.00 0.00 91 1005.0
20260505080755 71 170 10.4 12.2 0.00 0.00 0.00 91 1005.0
20260505080250 71 163 4.3 4.3 0.00 0.00 0.00 91 1005.0
20260505075746 71 168 8.7 8.7 0.00 0.00 0.00 91 1005.0
20260505075244 71 150 11.3 12.2 0.00 0.00 0.00 91 1005.0
20260505074741 71 155 6.1 7.0 0.00 0.00 0.00 91 1005.0
20260505074238 70 146 4.3 4.3 0.00 0.00 0.00 91 1005.0
20260505073735 70 156 4.3 5.2 0.00 0.00 0.00 91 1005.0
20260505073233 70 198 8.7 9.6 0.00 0.00 0.00 91 1005.3
20260505072730 70 186 10.4 12.2 0.00 0.00 0.00 91 1005.0
20260505072226 70 137 5.2 5.2 0.00 0.00 0.00 91 1005.3
20260505071721 70 161 6.1 6.1 0.00 0.00 0.00 90 1005.3
20260505071219 70 145 7.0 7.8 0.00 0.00 0.00 90 1005.3
20260505070716 70 192 7.8 7.8 0.00 0.00 0.00 90 1005.3
20260505070212 70 174 7.8 7.8 0.00 0.00 0.00 90 1005.7
20260505065708 70 150 4.3 4.3 0.00 0.00 0.00 90 1005.7
20260505065205 70 186 6.1 6.1 0.00 0.00 0.00 90 1005.7
20260505064702 71 168 4.3 4.3 0.00 0.00 0.00 90 1005.7
20260505064200 71 139 9.6 9.6 0.00 0.00 0.00 89 1005.7
20260505063657 71 151 7.8 7.8 0.00 0.00 0.00 89 1006.0
20260505063153 71 166 7.0 7.8 0.00 0.00 0.00 89 1005.7
20260505062649 71 145 5.2 5.2 0.00 0.00 0.00 89 1005.7
20260505062147 70 126 7.0 7.8 0.00 0.00 0.00 89 1005.7
20260505061644 70 153 7.8 7.8 0.00 0.00 0.00 89 1005.7
20260505061142 70 150 8.7 9.6 0.00 0.00 0.00 89 1005.3
20260505060639 70 143 7.0 7.0 0.00 0.00 0.00 89 1005.7
20260505060136 70 140 8.7 9.6 0.00 0.00 0.00 89 1005.3
20260505055631 70 156 9.6 10.4 0.00 0.00 0.00 89 1005.7
20260505055128 70 157 6.1 7.0 0.00 0.00 0.00 89 1005.7
20260505054626 70 174 9.6 10.4 0.00 0.00 0.00 89 1005.3
20260505054124 70 149 9.6 10.4 0.00 0.00 0.00 89 1005.3
20260505053621 70 149 7.8 7.8 0.00 0.00 0.00 89 1005.7
20260505053117 70 132 6.1 6.1 0.00 0.00 0.00 88 1005.7
20260505052614 70 144 7.0 7.8 0.00 0.00 0.00 88 1005.7
20260505052112 70 146 7.8 8.7 0.00 0.00 0.00 88 1006.0
20260505051608 70 120 7.8 7.8 0.00 0.00 0.00 88 1005.7
20260505051107 71 138 5.2 6.1 0.00 0.00 0.00 87 1005.7
20260505050604 71 163 9.6 10.4 0.00 0.00 0.00 87 1005.7
20260505041532 71 149 13.0 14.8 0.00 0.00 0.00 85 1006.3
20260505041029 71 143 4.3 5.2 0.00 0.00 0.00 85 1006.3
20260505040526 72 145 11.3 12.2 0.00 0.00 0.00 85 1006.0
20260505040024 72 162 10.4 11.3 0.00 0.00 0.00 84 1006.0
20260505035519 72 149 10.4 10.4 0.00 0.00 0.00 85 1006.0
20260505035016 72 180 7.0 7.8 0.00 0.00 0.00 84 1006.3
20260505034513 72 144 7.0 7.8 0.00 0.00 0.00 84 1006.0
20260505034010 72 145 8.7 9.6 0.00 0.00 0.00 84 1006.0
20260505033507 72 143 12.2 15.6 0.00 0.00 0.00 83 1006.0
20260505033005 73 142 6.1 7.0 0.00 0.00 0.00 83 1006.0
20260505032502 73 160 14.8 15.6 0.00 0.00 0.00 83 1006.0
20260505031958 73 158 7.8 7.8 0.00 0.00 0.00 83 1006.0
20260505031455 73 124 7.0 7.8 0.00 0.00 0.00 83 1005.7
20260505030952 73 137 12.2 13.9 0.00 0.00 0.00 83 1005.7
20260505030448 73 168 13.0 16.5 0.00 0.00 0.00 83 1006.0
20260505025943 73 138 7.0 7.8 0.00 0.00 0.00 82 1006.0
20260505025441 73 167 9.6 9.6 0.00 0.00 0.00 82 1006.0
20260505024940 73 148 11.3 12.2 0.00 0.00 0.00 82 1006.0
20260505024437 73 128 10.4 12.2 0.00 0.00 0.00 82 1006.0
20260505023934 74 151 11.3 12.2 0.00 0.00 0.00 82 1005.7
20260505023431 74 148 13.0 16.5 0.00 0.00 0.00 81 1005.7
20260505022928 74 125 9.6 9.6 0.00 0.00 0.00 81 1005.7
20260505022426 74 131 7.0 7.8 0.00 0.00 0.00 81 1006.0
20260505021922 74 138 6.1 6.1 0.00 0.00 0.00 81 1005.7
20260505021419 74 126 4.3 5.2 0.00 0.00 0.00 81 1005.7
20260505020915 74 162 8.7 8.7 0.00 0.00 0.00 81 1005.7
20260505020410 74 132 7.0 7.8 0.00 0.00 0.00 81 1005.7
20260505015908 74 132 7.8 7.8 0.00 0.00 0.00 81 1005.7
20260505015405 74 127 4.3 5.2 0.00 0.00 0.00 81 1005.7
20260505014902 74 112 7.0 7.8 0.00 0.00 0.00 80 1005.7
20260505014359 74 145 4.3 5.2 0.00 0.00 0.00 80 1005.7
20260505013855 74 148 7.8 7.8 0.00 0.00 0.00 80 1005.3
20260505013352 74 131 5.2 6.1 0.00 0.00 0.00 80 1005.3
20260505012851 74 120 7.0 7.8 0.00 0.00 0.00 80 1005.3
20260505012349 74 128 6.1 6.1 0.00 0.00 0.00 80 1005.3
20260505011844 75 123 4.3 4.3 0.00 0.00 0.00 79 1005.7
20260505011341 75 126 4.3 4.3 0.00 0.00 0.00 79 1005.3
20260505010837 75 115 4.3 5.2 0.00 0.00 0.00 78 1005.7
20260505010333 75 126 5.2 5.2 0.00 0.00 0.00 78 1005.3
20260505005830 76 138 8.7 8.7 0.00 0.00 0.00 77 1005.3
20260505005327 76 134 4.3 5.2 0.00 0.00 0.00 77 1005.3
20260505004824 76 124 7.0 7.8 0.00 0.00 0.00 76 1005.0
20260505004320 76 121 11.3 12.2 0.00 0.00 0.00 76 1005.0
20260505003818 77 138 7.8 8.7 0.00 0.00 0.00 75 1005.3
20260505003315 77 151 6.1 6.1 0.00 0.00 0.00 75 1005.0
20260505002811 77 150 11.3 13.9 0.00 0.00 0.00 74 1005.3
20260505002308 77 138 9.6 10.4 0.00 0.00 0.00 74 1005.3
20260505001806 78 126 7.8 7.8 0.00 0.00 0.00 74 1005.7
20260505001303 78 138 6.1 6.1 0.00 0.00 0.00 75 1005.7
20260505000800 78 132 5.2 6.1 0.00 0.00 0.00 74 1005.7
20260505000258 78 138 7.8 7.8 0.00 0.00 0.00 74 1005.7
20260504235754 78 144 5.2 5.2 0.00 0.00 0.00 73 1005.7
20260504235250 78 182 10.4 10.4 0.00 0.00 0.00 72 1005.7
20260504234748 78 128 13.9 14.8 0.00 0.00 0.00 72 1005.7
20260504234245 78 144 9.6 9.6 0.00 0.00 0.00 72 1005.7
20260504233741 78 126 9.6 10.4 0.00 0.00 0.00 71 1005.7
20260504233237 78 138 6.1 7.0 0.00 0.00 0.00 71 1005.7
20260504232734 78 144 8.7 8.7 0.00 0.00 0.00 71 1005.7
20260504232231 78 153 13.0 13.9 0.00 0.00 0.00 70 1005.7
20260504231728 79 138 10.4 12.2 0.00 0.00 0.00 70 1005.7
20260504231224 79 156 6.1 7.0 0.00 0.00 0.00 69 1006.0
20260504230720 79 234 7.0 7.0 0.00 0.00 0.00 69 1006.0
20260504230220 79 156 8.7 10.4 0.00 0.00 0.00 69 1005.7
20260504225718 79 126 7.0 7.0 0.00 0.00 0.00 68 1006.0
20260504225214 79 168 7.8 7.8 0.00 0.00 0.00 66 1005.7
20260504224711 79 138 8.7 8.7 0.00 0.00 0.00 66 1005.7
20260504224209 80 114 12.2 13.9 0.00 0.00 0.00 64 1006.0
20260504223704 81 144 7.0 7.8 0.00 0.00 0.00 65 1006.3
20260504223200 80 168 6.1 7.0 0.00 0.00 0.00 63 1006.3
20260504222658 80 109 7.8 8.7 0.00 0.00 0.00 65 1006.0
20260504222154 80 145 5.2 6.1 0.00 0.00 0.00 64 1005.7
20260504221651 80 150 7.8 7.8 0.00 0.00 0.00 64 1006.0
20260504221149 80 122 11.3 13.0 0.00 0.00 0.00 63 1006.3
20260504220645 80 138 6.1 7.0 0.00 0.00 0.00 64 1006.3
20260504220143 80 166 11.3 13.0 0.00 0.00 0.00 63 1006.3
20260504215638 80 144 11.3 12.2 0.00 0.00 0.00 64 1006.0
20260504215136 80 128 6.1 6.1 0.00 0.00 0.00 66 1006.3
20260504214632 79 146 7.8 7.8 0.00 0.00 0.00 65 1006.3
20260504214128 80 126 11.3 12.2 0.00 0.00 0.00 65 1006.3
20260504213625 81 127 13.0 13.9 0.00 0.00 0.00 63 1006.7
20260504213122 81 144 9.6 10.4 0.00 0.00 0.00 62 1006.7
20260504212618 81 132 7.8 7.8 0.00 0.00 0.00 63 1006.7
20260504212115 80 132 9.6 10.4 0.00 0.00 0.00 62 1006.7
20260504211612 80 147 9.6 9.6 0.00 0.00 0.00 63 1006.7
20260504211109 81 184 12.2 13.9 0.00 0.00 0.00 61 1007.0
20260504210607 80 234 9.6 10.4 0.00 0.00 0.00 63 1007.0
20260504205601 79 150 6.1 7.0 0.00 0.00 0.00 65 1007.4
20260504205058 80 127 9.6 10.4 0.00 0.00 0.00 63 1007.4
20260504204556 79 150 7.0 7.0 0.00 0.00 0.00 64 1007.7
20260504204055 79 144 3.5 3.5 0.00 0.00 0.00 65 1007.7
20260504203553 79 162 10.4 10.4 0.00 0.00 0.00 63 1008.0
20260504203050 79 138 10.4 10.4 0.00 0.00 0.00 64 1008.0
20260504202545 79 147 6.1 6.1 0.00 0.00 0.00 63 1008.0
20260504202042 79 147 3.5 3.5 0.00 0.00 0.00 64 1008.0
20260504201539 79 162 6.1 7.0 0.00 0.00 0.00 65 1008.4
20260504201037 79 134 12.2 13.0 0.00 0.00 0.00 64 1008.4
20260504200533 79 138 9.6 9.6 0.00 0.00 0.00 63 1008.4
20260504200030 81 123 8.7 8.7 0.00 0.00 0.00 62 1008.0
20260504195526 80 184 7.8 7.8 0.00 0.00 0.00 61 1008.4
20260504195023 79 180 6.1 6.1 0.00 0.00 0.00 64 1008.4